Dewpoint
59 60 60 61 61 61 62 62 63 63 63 63 63 63 63 63 63 63 63 62 63 62 62 63 62 62 63 62 62 62 60 56 56 56 55 58 60 62 61 60 58 58 58 51 49 47 46 36 32 35 34 31 37 30 38 39 40 36 28 28 25 30 27 31 23 20 23 21 22 24 24 22 22 23 26 37 44 47 49 52 52 57 57 56 57 59 60 60
58 59 60 61 61 62 62 62 62 63 63 63 63 63 63 64 63 63 62 63 62 62 63 63 63 63 62 62 62 61 58 56 56 55 55 61 62 62 61 58 58 57 57 52 50 51 50 40 34 33 30 28 45 35 38 38 37 33 31 28 24 29 29 29 24 22 21 20 22 24 24 22 22 22 24 32 37 42 46 48 53 55 56 57 58 59 60 59
58 59 60 61 61 60 61 62 62 62 63 63 62 62 63 63 63 62 62 62 62 62 62 63 63 62 62 62 62 60 56 55 56 53 56 62 62 62 59 58 58 58 52 51 53 50 48 40 41 31 32 28 30 30 36 31 34 33 31 26 28 32 31 24 20 22 22 22 23 23 23 23 22 22 24 32 35 38 44 51 51 53 54 56 58 59 59 59
57 57 60 61 61 61 61 62 62 62 62 62 62 62 61 63 63 63 62 62 62 62 62 62 62 62 61 61 61 57 55 53 51 55 59 63 63 61 59 60 60 57 53 54 55 51 51 47 36 30 34 28 29 38 33 33 27 29 28 28 28 33 21 19 21 21 22 23 23 23 22 23 24 22 22 30 30 31 37 51 51 54 55 57 58 59 59 59
57 57 58 60 61 61 61 61 62 63 62 62 62 62 62 62 63 62 62 62 62 62 62 62 62 61 61 61 60 55 51 49 50 57 60 63 63 60 58 59 59 56 53 55 54 53 51 48 40 32 32 34 30 24 27 33 29 30 23 26 33 24 21 20 22 23 24 24 23 21 21 22 22 21 21 27 24 24 28 40 51 56 57 57 58 58 58 58
56 57 57 58 61 61 61 61 61 62 62 62 62 62 62 62 62 62 62 62 62 62 62 62 62 61 61 60 58 53 48 40 55 53 63 63 63 60 58 58 57 55 55 54 54 54 51 50 49 35 39 44 30 22 20 27 31 24 24 24 26 21 20 21 21 22 23 22 21 20 21 21 20 20 20 24 20 20 23 37 49 57 58 58 59 58 58 58
57 56 57 58 60 61 61 61 61 62 62 62 62 62 61 62 62 62 62 62 62 62 62 62 61 61 60 59 56 52 47 52 46 52 63 63 62 60 58 59 59 54 53 51 53 53 51 50 52 42 32 34 32 24 23 22 29 26 23 23 21 23 20 22 21 22 20 22 21 21 21 20 19 17 19 19 18 18 21 35 53 58 58 59 58 58 58 58
56 57 57 58 60 61 61 61 61 61 62 62 62 62 62 62 61 62 62 62 62 62 62 62 61 60 59 55 54 52 49 45 46 57 63 63 61 58 58 58 55 54 52 51 52 51 52 50 49 44 37 28 27 26 24 22 25 25 25 25 21 22 21 23 21 20 21 22 21 21 19 19 18 17 19 17 21 23 29 36 57 58 58 58 58 58 58 58
56 57 57 57 59 60 61 61 61 61 62 62 62 62 62 62 61 61 61 62 62 62 62 61 60 60 58 55 52 50 49 51 50 61 62 61 58 58 57 55 56 53 53 54 54 52 52 49 47 53 49 31 26 26 25 20 19 25 25 24 22 21 22 21 20 21 20 21 20 19 19 20 20 22 17 18 21 23 42 47 58 58 58 58 58 58 58 58
56 56 57 57 58 60 60 60 60 61 61 61 61 61 62 62 61 61 61 62 62 62 61 61 60 59 56 54 52 47 48 55 60 61 60 59 57 55 54 53 54 52 51 54 53 53 52 52 50 44 42 42 31 26 23 24 20 24 25 22 20 21 21 22 20 21 22 22 19 18 19 18 21 18 14 18 21 37 45 51 57 57 57 57 58 58 58 58
56 56 56 56 57 59 60 60 60 61 61 61 61 62 62 62 61 62 62 62 62 61 61 60 60 58 55 53 50 48 48 59 60 61 59 59 54 52 53 54 54 52 51 52 52 55 52 49 50 49 53 49 37 31 25 21 20 19 22 22 21 21 23 22 21 20 19 19 20 18 18 21 20 20 14 17 21 41 47 52 56 56 57 57 57 58 58 58
55 56 56 56 56 58 60 60 60 60 61 61 61 61 61 61 61 62 61 62 62 61 61 60 59 57 54 53 50 50 53 55 59 60 60 58 54 53 54 53 53 52 51 50 52 53 52 50 52 50 47 50 46 34 27 22 22 20 21 19 20 20 20 21 19 20 22 18 20 19 16 17 20 16 17 18 24 39 49 52 54 55 56 56 57 57 57 58
55 56 55 56 57 58 59 60 60 60 60 61 61 61 61 61 61 61 61 61 61 61 60 60 58 56 53 50 51 47 52 55 58 57 59 58 55 55 52 51 52 55 54 51 51 52 52 52 51 47 48 50 42 39 27 26 22 20 20 19 20 19 18 19 22 22 20 18 22 18 11 14 15 18 18 20 27 38 48 50 52 53 55 55 56 56 57 58
54 55 55 56 56 58 59 59 60 60 60 61 61 61 61 61 61 61 61 61 61 61 60 60 55 54 52 49 50 53 52 58 56 56 57 53 53 53 50 50 51 53 55 52 52 53 51 53 52 49 50 46 41 34 29 26 22 18 19 20 20 18 17 19 20 21 19 21 22 16 13 15 15 16 20 23 27 41 44 48 49 51 53 54 55 55 56 57
54 55 55 56 56 57 58 59 60 60 60 60 61 61 61 61 61 61 61 61 61 61 60 57 54 52 50 48 52 53 57 56 54 54 52 52 51 48 46 46 47 48 50 52 52 54 54 52 47 48 48 38 32 29 28 20 18 19 17 17 22 18 20 21 24 19 17 18 17 14 18 16 13 14 17 22 24 37 40 42 43 44 47 50 53 54 55 56
54 54 55 56 56 57 58 58 58 60 60 60 60 60 60 60 60 61 61 60 61 60 57 51 53 53 48 46 49 55 55 54 53 54 51 52 50 48 45 45 46 45 45 49 52 51 50 49 50 50 48 43 40 32 25 22 20 18 18 23 20 19 19 18 20 21 20 18 19 13 13 14 10 13 18 21 21 24 30 34 35 36 38 39 46 51 52 53
53 54 55 55 56 57 58 58 58 59 60 60 60 59 59 60 60 60 61 60 58 56 52 50 53 54 45 49 51 47 49 52 53 49 45 48 47 45 43 43 44 46 48 49 50 47 50 45 47 48 47 45 43 29 24 20 18 19 21 20 26 17 18 15 19 21 26 18 16 18 13 12 11 14 19 21 21 20 20 25 29 30 32 32 36 44 48 50
53 53 54 55 56 57 58 58 59 59 60 59 59 59 59 60 59 57 55 54 53 53 51 53 53 49 46 47 44 43 47 47 51 45 44 42 44 42 41 43 43 42 43 42 47 45 51 46 49 43 44 42 40 27 22 20 19 19 18 19 19 18 17 16 17 17 19 17 15 16 15 14 14 15 18 20 20 19 19 19 24 28 29 28 31 37 44 47
53 53 54 55 56 57 58 58 59 60 59 59 59 60 58 57 55 53 51 51 49 47 45 45 48 42 39 44 46 45 45 50 49 42 39 41 43 39 41 42 41 40 41 41 45 44 47 44 45 41 38 39 37 28 23 23 24 20 21 20 23 18 19 17 17 20 19 16 14 14 14 13 13 14 17 19 20 18 18 18 19 23 27 28 30 36 41 45
53 53 54 55 55 57 57 58 59 59 59 58 56 54 52 49 48 46 50 49 46 45 43 46 47 44 45 45 47 47 45 47 43 42 40 41 40 38 39 39 42 42 40 40 42 44 44 38 37 37 40 40 37 29 21 19 19 19 24 24 20 18 20 19 21 21 20 16 14 14 14 13 13 13 16 18 19 20 18 17 16 16 21 27 28 33 39 43
52 53 54 54 55 56 58 58 59 59 58 55 53 52 46 45 41 39 45 47 43 45 47 47 46 40 41 46 45 41 41 42 44 42 39 40 37 36 36 37 37 38 43 40 39 46 41 38 37 39 40 38 35 26 18 18 18 17 20 21 19 22 16 19 20 22 22 16 15 14 14 15 13 13 13 18 19 18 18 17 16 15 16 23 27 30 36 40
52 52 53 54 55 57 58 58 59 58 57 54 53 52 50 48 51 49 46 40 41 44 47 48 46 44 48 47 48 45 44 40 39 40 41 37 35 33 34 35 35 36 40 41 39 38 37 36 37 39 38 35 29 19 16 17 17 17 16 20 20 20 23 20 21 21 21 18 15 15 14 14 14 14 14 17 18 18 18 18 16 15 15 17 23 27 31 34
52 53 53 54 55 57 58 58 58 57 56 53 51 51 49 50 49 47 41 40 39 43 44 43 42 42 44 47 50 48 36 36 37 38 36 37 34 33 34 34 35 37 38 38 36 36 33 36 40 38 36 33 30 24 16 16 17 16 17 18 17 22 19 18 17 22 20 15 13 17 14 14 15 16 17 16 16 17 19 19 19 18 15 16 18 22 27 29
53 53 53 54 55 57 58 58 58 56 55 53 52 50 52 49 45 42 40 37 37 39 42 44 44 45 43 45 48 47 37 37 37 35 38 34 32 35 34 34 35 36 35 36 36 36 36 39 39 37 36 34 30 26 19 14 13 22 21 21 20 23 19 17 16 20 20 18 19 16 21 16 16 14 14 15 18 18 19 21 20 21 25 23 26 25 26 25
54 53 53 54 55 57 58 58 55 53 54 53 49 51 52 48 44 39 36 32 35 36 45 43 44 43 45 48 48 47 47 37 37 35 38 36 34 33 33 36 35 34 35 36 37 36 36 35 37 36 35 34 31 25 21 21 13 16 24 19 17 21 18 20 21 17 17 17 21 17 13 14 17 15 14 14 15 17 17 18 17 18 19 22 21 22 25 29
53 53 54 54 56 57 58 53 52 54 52 49 49 50 49 46 43 41 33 29 29 34 40 35 45 40 47 43 46 45 44 41 38 35 38 41 42 33 34 34 34 33 34 35 35 36 36 34 35 36 34 33 30 26 23 19 15 16 12 22 16 19 20 21 20 20 15 15 18 15 13 15 18 12 13 13 14 14 16 18 17 17 17 19 22 24 24 25
53 53 54 55 56 57 54 49 54 52 49 48 50 49 47 46 42 39 36 28 29 34 35 40 40 42 43 43 44 43 36 36 39 38 35 41 34 35 32 32 32 34 35 35 34 32 32 32 32 35 35 34 31 28 24 18 17 15 24 28 21 20 23 22 20 21 19 23 22 19 15 11 12 11 11 16 11 12 13 14 17 17 18 18 20 23 25 27
53 54 54 55 57 56 54 54 51 49 48 48 50 50 47 46 44 48 37 25 25 36 33 37 41 47 45 44 45 42 41 40 34 34 35 39 31 33 32 31 31 32 33 32 29 34 30 32 33 32 33 36 31 29 26 19 17 19 28 27 22 20 22 24 21 21 24 17 17 17 22 8 11 12 15 13 9 9 9 10 12 16 19 19 22 24 27 29
53 54 54 55 57 56 56 53 50 49 48 47 47 46 47 46 47 39 27 23 29 27 39 33 41 44 44 43 42 38 43 38 36 36 38 36 38 32 30 31 31 32 32 31 30 33 32 34 34 34 34 32 30 29 23 22 16 24 32 33 31 30 29 24 19 21 18 12 15 15 16 9 12 18 17 11 10 10 10 9 9 12 18 21 23 25 30 35
53 54 55 56 56 55 54 53 51 49 47 47 45 46 49 44 42 31 24 19 30 26 33 34 38 36 42 38 38 37 37 37 32 35 38 38 35 33 27 31 31 30 30 28 31 37 33 36 39 33 33 31 30 25 30 26 17 32 28 26 26 27 25 24 25 21 17 12 16 18 18 8 8 15 7 9 13 6 7 10 10 13 19 20 24 26 35 39
54 54 55 56 53 54 53 50 50 47 48 48 47 50 46 42 35 27 21 25 29 29 32 32 34 40 38 36 35 37 36 36 36 32 31 30 30 27 27 27 32 31 30 29 29 33 30 34 36 37 34 33 30 29 33 35 33 27 26 23 22 21 24 23 23 23 13 13 18 21 20 8 9 12 14 13 11 11 9 9 9 11 15 20 28 35 38 38
54 55 56 56 55 54 50 48 49 48 48 50 49 45 43 31 34 25 21 27 23 27 30 31 35 36 37 37 35 35 32 33 33 30 29 29 28 25 26 25 29 27 27 26 26 32 29 32 36 36 38 31 31 29 27 32 32 27 22 18 18 14 18 11 13 12 11 10 14 15 18 14 12 11 8 12 12 11 8 9 8 10 16 24 34 37 39 39
54 55 56 55 54 53 51 51 49 47 47 47 46 44 36 30 23 27 24 24 22 29 29 32 33 34 35 34 33 33 34 30 31 30 30 30 28 27 29 26 28 28 25 27 27 28 30 35 34 35 32 31 31 23 24 25 27 22 17 17 17 12 8 9 10 8 8 13 17 14 17 12 15 13 16 15 15 15 12 11 16 17 21 30 35 36 38 38
55 55 55 54 53 54 52 51 48 47 46 45 43 39 32 27 25 30 25 24 25 28 30 30 32 34 33 32 31 31 29 31 33 33 29 28 27 24 25 26 26 27 29 27 25 26 25 26 28 30 27 31 28 25 26 29 25 19 23 18 20 17 8 4 6 8 11 15 13 19 9 13 12 11 14 13 13 19 25 28 30 29 31 34 35 36 36 37
55 55 53 53 53 53 52 50 48 48 45 42 41 34 28 26 27 25 24 25 26 28 29 32 31 31 31 31 32 30 30 28 30 30 30 27 25 24 23 24 26 27 29 24 26 25 26 26 30 33 32 29 29 33 34 30 27 27 27 23 18 17 19 10 14 13 9 7 6 9 12 17 11 14 19 18 20 24 27 32 33 33 35 36 37 37 38 38
54 52 52 51 51 51 52 51 50 49 46 43 35 30 28 29 25 26 25 27 26 28 29 30 31 29 29 28 31 30 33 29 28 29 28 29 27 24 25 25 25 25 25 24 26 23 26 23 32 35 31 27 29 31 30 31 20 23 20 18 24 23 17 14 14 15 11 8 5 12 11 16 13 4 15 18 18 21 26 31 33 34 36 36 37 37 37 38
50 52 49 50 50 52 52 51 50 47 46 41 33 29 31 29 28 27 30 25 27 29 29 27 28 27 27 26 30 29 30 30 29 28 26 28 25 25 24 25 26 25 25 25 24 27 24 28 31 29 26 29 31 31 32 30 30 23 17 20 28 27 24 18 10 9 6 6 11 9 8 8 3 10 17 12 15 16 18 26 32 34 35 36 37 37 38 38
49 49 49 49 51 53 52 51 49 47 43 37 31 32 27 25 29 27 28 28 29 30 27 27 27 28 26 26 28 29 30 26 26 27 26 26 24 27 24 23 25 24 24 25 24 25 29 24 27 30 32 34 35 32 28 31 31 26 25 30 17 14 10 14 13 3 3 2 3 7 12 9 8 7 13 7 11 12 15 21 26 31 34 35 36 37 36 36
49 48 44 49 52 53 52 51 48 45 40 33 30 30 29 30 30 27 26 27 30 29 27 27 25 26 26 26 27 28 28 23 26 26 24 25 22 25 23 25 26 23 23 23 21 25 29 26 28 30 30 32 30 29 25 24 28 32 28 22 26 20 23 10 13 14 14 5 -1 11 8 10 16 9 12 10 10 12 13 18 23 30 33 35 36 38 38 38
47 44 42 50 52 53 52 50 46 42 37 31 30 27 31 27 28 27 27 28 28 28 27 27 27 24 26 26 27 26 27 24 25 25 24 25 24 26 23 25 23 24 22 22 24 30 21 29 24 27 31 28 25 26 26 25 22 21 21 19 19 21 23 21 17 15 9 4 3 2 1 15 14 15 10 8 9 11 13 17 23 27 32 34 35 38 38 38
46 42 42 51 52 52 51 48 42 37 34 31 30 29 30 27 27 26 28 29 29 31 27 27 26 24 25 25 26 27 26 26 25 24 24 24 22 21 25 23 26 23 24 23 26 25 22 22 24 27 27 23 28 31 30 30 27 23 22 21 20 18 13 9 14 15 11 7 1 -1 3 16 19 17 12 8 12 14 17 17 20 24 30 33 35 37 38 38
42 37 40 50 51 50 47 40 39 39 33 29 28 29 29 35 27 27 27 28 28 26 27 26 26 26 26 25 26 27 26 25 25 24 25 23 23 26 26 24 24 24 22 21 21 30 28 29 28 25 27 27 30 32 34 33 31 29 22 22 25 21 20 15 9 15 10 9 14 11 1 12 21 19 17 17 18 18 16 18 17 23 29 33 36 38 37 37
41 40 49 50 51 48 44 38 39 36 33 32 32 30 34 27 26 28 27 28 27 30 26 25 24 25 26 25 27 27 27 24 25 23 25 25 23 25 29 24 24 25 24 24 29 29 34 28 26 26 27 30 30 32 33 33 32 28 27 29 23 20 22 18 21 23 16 9 7 3 -0 13 22 26 26 24 24 24 23 18 18 22 29 33 36 37 37 37
43 42 45 50 50 48 41 34 34 35 33 32 30 30 34 27 27 27 26 26 27 25 25 25 26 24 25 27 26 26 27 22 26 26 24 25 23 30 28 23 24 25 23 25 21 31 22 23 24 23 22 23 26 28 26 28 30 26 25 27 27 26 26 26 22 19 11 17 16 11 7 8 21 24 24 21 19 16 18 18 20 24 31 34 36 37 38 38
44 45 45 46 49 47 39 40 37 34 32 30 29 29 30 28 28 26 26 25 31 24 25 24 25 27 26 28 27 27 27 24 25 28 27 26 25 31 31 27 26 24 27 32 31 32 28 27 24 21 20 19 18 19 20 22 25 27 27 24 27 24 22 17 13 13 8 17 13 7 7 15 16 16 14 15 18 15 17 21 23 27 31 35 36 37 38 38
41 33 40 43 45 45 43 42 38 34 31 30 29 30 29 28 31 32 28 30 34 29 27 29 30 28 28 27 26 27 25 28 26 26 26 25 27 27 31 29 27 27 31 34 34 28 25 28 24 22 20 20 21 23 27 27 24 22 25 25 25 27 24 24 26 18 13 17 13 15 15 13 10 9 14 16 18 15 19 22 24 27 32 35 36 37 38 38
40 37 38 34 42 42 41 42 36 34 31 31 27 30 29 28 30 29 33 28 34 27 30 27 29 26 27 27 26 26 27 28 28 28 26 25 29 27 30 31 30 31 34 33 32 28 29 25 25 24 23 23 25 25 26 25 23 23 25 25 27 25 25 23 20 18 23 19 13 21 21 13 11 14 19 17 18 19 21 20 24 28 33 35 36 37 38 37
35 37 41 41 37 34 36 37 36 32 32 31 28 30 29 29 28 26 32 34 33 29 26 29 27 27 27 26 26 25 26 26 27 26 27 28 27 27 28 30 29 32 33 28 32 25 25 23 26 25 24 23 24 22 25 24 23 23 23 24 25 26 25 24 23 21 23 18 14 17 19 16 12 17 16 16 16 12 14 17 22 28 33 35 36 37 37 37
37 37 38 41 36 37 37 37 36 32 31 31 30 31 30 29 27 28 30 32 30 27 27 25 26 28 27 28 26 25 26 25 24 26 26 27 26 27 25 26 28 30 29 27 27 30 21 21 26 24 24 24 26 25 28 24 23 23 24 23 23 26 25 24 23 23 23 20 20 17 20 19 17 18 18 19 21 19 17 22 32 32 33 35 36 36 37 37
34 37 35 37 37 38 37 36 35 31 30 32 29 30 31 29 27 32 32 30 26 27 31 26 26 28 28 28 26 25 26 25 26 26 27 27 23 26 25 27 27 26 28 26 26 24 22 20 27 23 20 22 27 28 27 26 25 22 24 25 24 26 26 25 23 23 25 22 21 23 21 21 23 22 20 23 24 25 22 21 23 29 33 34 35 36 36 36
35 35 35 36 35 36 38 36 33 30 29 30 28 30 31 29 30 32 33 36 27 27 30 25 27 28 29 28 26 26 28 27 29 28 28 27 25 28 25 24 28 27 28 27 24 27 27 20 26 22 20 17 26 26 26 26 25 24 23 25 26 26 24 25 24 24 22 21 21 21 20 19 20 26 25 24 24 21 19 19 19 28 33 34 35 35 36 36
37 38 37 37 33 36 34 35 33 30 28 30 29 30 30 30 32 34 31 34 36 35 32 30 30 27 27 27 26 27 30 31 30 31 29 28 27 32 33 29 28 27 28 26 29 26 26 26 22 22 20 18 23 26 26 24 22 20 23 24 26 26 25 25 25 26 24 22 20 21 18 18 24 26 23 25 25 24 23 21 21 28 33 34 34 35 35 36